Regional Weather Roundup
Issued by NWS

Home | Current Version | Previous Version | Text Only | Print | Product List | Glossary On
Versions: 1 2 3 4 5 6 7 8 9 10 11 12 13 14 15 16 17 18 19 20 21 22 23 24 25 26 27 28 29 30 31 32 33 34 35 36 37 38 39 40 41 42 43 44 45 46 47 48 49 50
000
ASUS43 KMKX 291521
RWRWI

WISCONSIN REGIONAL WEATHER ROUNDUP
NATIONAL WEATHER SERVICE MILWAUKEE/SULLIVAN WI
1000 AM CDT SAT APR 29 2017

NOTE: "FAIR" INDICATES FEW OR NO CLOUDS BELOW 12,000 FEET WITH NO
SIGNIFICANT WEATHER AND/OR OBSTRUCTIONS TO VISIBILITY.

WIZ001-002-006>008-014>016-023>028-291600-
NORTHWEST WISCONSIN

CITY           SKY/WX    TMP DP  RH WIND       PRES   REMARKS
SUPERIOR ARPT  SUNNY     44  26  47 N3        30.38R
ASHLAND        SUNNY     42  26  53 CALM      30.37R
HAYWARD        CLOUDY    43  22  43 E5        30.33R
SIREN          CLOUDY    44  24  45 CALM      30.33S
CUMBERLAND     CLOUDY    41  23  48 E6        30.32R
RICE LAKE      CLOUDY    42  24  48 NE8       30.33R
CHETEK         CLOUDY    42  26  53 E6        30.32R
LADYSMITH      MOSUNNY   43  26  50 NE9       30.32R
EAU CLAIRE     CLOUDY    45  23  42 E15G22    30.29R
MENOMONIE      CLOUDY    44  24  46 E12       30.31S
NEW RICHMOND   PTSUNNY   44  23  44 E7        30.32S
OSCEOLA        CLOUDY    44  26  48 NE10      30.36R
$$

WIZ003>005-009-010-017-018-291600-
NORTH CENTRAL WISCONSIN

CITY           SKY/WX    TMP DP  RH WIND       PRES   REMARKS
MANITOWISH WTR SUNNY     39  22  51 NE8       30.31R WCI  33
ARBOR VITAE    SUNNY     39  21  48 N7        30.30R WCI  34
WOODRUFF       SUNNY     39  21  48 N7        30.30R WCI  34
RHINELANDER    SUNNY     41  23  48 NE9       30.29S
EAGLE RIVER    SUNNY     39  20  47 NE9       30.29S WCI  33
LAND O LAKES   SUNNY     39  19  44 E7        30.31F WCI  34
PHILLIPS       MOSUNNY   40  25  55 NE12G18   30.31R WCI  33
TOMAHAWK       SUNNY     41  24  51 N5        30.30R
MEDFORD        SUNNY     41  26  55 NE13G18   30.28R
MERRILL        SUNNY     41  25  51 E12       30.29R
$$

WIZ029-030-035-036-043>047-291600-
CENTRAL WISCONSIN

CITY           SKY/WX    TMP DP  RH WIND       PRES   REMARKS
WAUSAU         SUNNY     41  23  48 NE14      30.27F
MOSINEE        MOSUNNY   41  27  56 NE10      30.28F
MARSHFIELD     SUNNY     41  25  53 E13       30.27S
STEVENS POINT  CLOUDY    40  23  50 NE14G21   30.28S WCI  33
WAUPACA        CLOUDY    44  25  46 NE13G20   30.27F
WAUTOMA        PTSUNNY   42  27  55 NE12      30.28S
WISC RAPIDS    CLOUDY    43  24  47 E13       30.28F
CAMP DOUGLAS   PTSUNNY   43  28  56 NE10      30.25F
$$

WIZ011>013-019>022-031-037>040-048>050-291600-
NORTHEAST WISCONSIN

CITY           SKY/WX    TMP DP  RH WIND       PRES   REMARKS
ANTIGO         SUNNY     39  25  56 NE15      30.28S WCI  31
SHAWANO        MOSUNNY   44  29  55 NE14      30.29F
OCONTO         CLOUDY    41  26  55 N8        30.29F
STURGEON BAY   CLOUDY    40  28  62 N20G26    30.29S WCI  30
GREEN BAY      CLOUDY    42  30  62 NE21      30.27F
MANITOWOC      CLOUDY    41  27  57 N15G21    30.27F
APPLETON       PTSUNNY   41  23  48 NE16G23   30.25
CLINTONVILLE   CLOUDY    43  27  52 NE12G24   30.27F
OSHKOSH        MOSUNNY   43  29  57 NE13G22   30.26S
$$

WIZ032>034-041-042-053>061-291600-
SOUTHWEST WISCONSIN

CITY           SKY/WX    TMP DP  RH WIND       PRES   REMARKS
LA CROSSE      MOSUNNY   46  27  47 NE14G24   30.24F
SPARTA         MOSUNNY   43  27  54 NE14      30.26F
VIROQUA        MOSUNNY   41  31  66 E13       30.22F
BOSCOBEL       CLOUDY    46  29  51 NE8G18    30.23S
PRAIRIE DU CHI PTSUNNY   45  30  57 NE15      30.21F
PLATTEVILLE    MOSUNNY   46  37  71 NE24      30.15F
$$

WIZ056-057-062-063-064-067-068-291600-
SOUTH CENTRAL WISCONSIN

CITY           SKY/WX    TMP DP  RH WIND       PRES   REMARKS
REEDSBURG      CLOUDY    40  27  59 NE13G20   30.24S WCI  33
BARABOO/DELLS  CLOUDY    41  29  61 NE13G21   30.24S
LONE ROCK      CLOUDY    45  30  55 NE12      30.23S
MINERAL POINT  CLOUDY    45  34  65 NE15G24   30.18F
MADISON        PTSUNNY   43  30  60 NE16      30.22S
MIDDLETON      MOSUNNY   45  34  65 NE16      30.22S
WATERTOWN      MOSUNNY   42  32  66 NE14G21   30.22S
MONROE         CLOUDY    45  34  65 N23       30.15F
JANESVILLE     SUNNY     48  36  61 NE15G24   30.16F
$$

WIZ051-052-058>065-066-070>072-291600-
SOUTHEAST WISCONSIN

CITY           SKY/WX    TMP DP  RH WIND       PRES   REMARKS
MILWAUKEE      CLOUDY    42  32  67 NE22G31   30.22S
WAUKESHA       SUNNY     39  30  70 NE17      30.22F WCI  30
MILWAUKEE/TIMM SUNNY     41  27  56 NE17G25   30.23F
RACINE         PTSUNNY   42  32  67 NE21G35   30.21F
KENOSHA        CLOUDY    43  33  68 NE21      30.18F
FOND DU LAC    CLOUDY    43  29  57 NE16G23   30.26S
SHEBOYGAN      CLOUDY    41  33  73 NE22      30.25F
WEST BEND      CLOUDY    41  32  70 NE14G21   30.23F
JUNEAU         CLOUDY    41  29  62 N15       30.23F
$$

LSZ147-162-291600-
LAKE SUPERIOR

STATION/POSITION TIME  TEMP    WIND        PRES    WAVE
                       AIR SEA DIR/SP/G            HT/PER
                 (UTC) (F)     (DEG/KT/KT) (MB)    (FT/S)
DEVILS ISLAND    1500   39      60/  2/  3 1029.6R
PORT WING        1240   34     130/  2/  5 1026.4
SAXON HARBOR     1430   38     300/  4/  5 1027.4R
$$

LMZ867-665-643>646-291600-
LAKE MICHIGAN

STATION/POSITION TIME  TEMP    WIND        PRES    WAVE
                       AIR SEA DIR/SP/G            HT/PER
                 (UTC) (F)     (DEG/KT/KT) (MB)    (FT/S)
CHAMBERS ISLAND  1440   39      10/ 16/ 20 1025.7R
N MID LAKE BUOY  1450   36 37  360/ 12/ 14 1027.2R   1/ 3
NORTHPORT PIER   1440   37     350/ 13/ 15 1026.1R
KEWAUNEE LAKESHO 1500   40      50/ 13/ 17 1024.8
SHEBOYGAN LAKESH 1500   38      20/ 19/ 21 1025.1S
PORT WASHINGTON  1440   41      40/ 21/ 25 1025.1F
MILWAUKEE LAKESH 1500   39      30/ 24/ 27   N/A
S MID LAKE BUOY  1450   41 41   20/ 19/ 23 1021.7F   4/ 5
KENOSHA   LAKESH 1500   40      20/ 27/ 30 1021.7
$$

TC  - TEMPERATURE IN CELSIUS
VSB - VISIBILITY IN STATUTE MILES
WCI - WIND CHILL INDEX
HX  - HEAT INDEX




USA.gov is the U.S. government's official web portal to all federal, state and local government web resources and services.